{"data":{"norad_id":58059,"intl_designator":"2023-158J","name":"STARLINK-30582","alt_names":[],"object_type":"PAYLOAD","status":"ACTIVE","operator":null,"country":"US","launch_date":"2023-10-13","launch_site_code":"AFETR","launch_vehicle":null,"mission":null,"orbit_class":"UNKNOWN","rcs_meters":null,"size_class":null,"mass_kg":null,"dimensions":null,"purposes":["comms"],"wikipedia_slug":null,"has_3d_model":false,"image_url":null,"decayed_at":null,"tle_current":{"epoch":"2026-05-25T04:30:23.544864Z","epoch_age_seconds":52210,"freshness":"FRESH","line1":"1 58059U 23158J   26145.18777251 -.00000141  00000+0  44046-5 0  9991","line2":"2 58059  43.0060 314.6625 0001940 259.9460 100.1173 15.27578308145276","mean_motion":15.27578308,"eccentricity":0.000194,"inclination_deg":43.006,"raan_deg":314.6625,"arg_perigee_deg":259.946,"mean_anomaly_deg":100.1173,"bstar":4.4046e-6,"rev_number":14527,"period_min":94.266853126851,"perigee_km":481.7230914155,"apogee_km":484.38523358655,"semimajor_km":6861.191162501,"source":"CELESTRAK","updated_at":"2026-05-25T13:38:18.500318Z"}}}